Volver al catálogo

CZ-4C R/B

ActivoLEO
NORAD 36123·ROCKET BODY·🇨🇳 China

Lanzado Dec 15, 2009 desde Taiyuan Satellite Launch Center

Loading…

Próximos Pases (próximas 24 horas)

TLE

ActualizadoSource: Space-Track

Época: Sep 14, 2026, 14:07 UTC

1 36123U 09072C   26257.58865255 -.00000065  00000-0 -27202-4 0  9999
2 36123 100.4966 291.4467 0157465  90.8774  72.2839 13.46242019822936

Sigue CZ-4C R/B en tiempo real con AllMySat

Download on the App Store